Time,TemperatureF,DewpointF,PressureIn,WindDirection,WindDirectionDegrees,WindSpeedMPH,WindSpeedGustMPH,Humidity,HourlyPrecipIn,Conditions,Clouds,dailyrainin,SoftwareType,DateUTC
2013-03-15 00:14:00,40.6,35.2,30.01,SSE,157,0.0,-999.0,81,-99.99,,,0.00,Acu-Link.com,2013-03-15 05:14:00,
2013-03-15 00:29:00,41.0,35.3,30.01,East,90,0.0,-999.0,80,-99.99,,,0.00,Acu-Link.com,2013-03-15 05:29:00,
2013-03-15 00:44:00,41.4,34.7,30.00,East,90,0.0,-999.0,77,-99.99,,,0.00,Acu-Link.com,2013-03-15 05:44:00,
2013-03-15 00:59:00,43.7,34.2,30.00,SE,135,1.7,-999.0,69,-99.99,,,0.00,Acu-Link.com,2013-03-15 05:59:00,
2013-03-15 01:14:00,47.8,35.0,30.00,SW,225,7.3,-999.0,61,-99.99,,,0.00,Acu-Link.com,2013-03-15 06:14:00,
2013-03-15 01:29:00,48.7,34.6,30.01,SE,135,2.7,-999.0,58,-99.99,,,0.00,Acu-Link.com,2013-03-15 06:29:00,
2013-03-15 01:44:00,48.9,34.3,30.00,SE,135,2.2,-999.0,57,-99.99,,,0.00,Acu-Link.com,2013-03-15 06:44:00,
2013-03-15 01:59:00,48.9,34.3,30.00,SSE,157,3.2,-999.0,57,-99.99,,,0.00,Acu-Link.com,2013-03-15 06:59:00,
2013-03-15 02:15:00,48.4,34.7,30.00,South,180,3.2,-999.0,59,-99.99,,,0.00,Acu-Link.com,2013-03-15 07:15:00,
2013-03-15 02:30:00,48.7,34.6,30.00,SSE,157,2.2,-999.0,58,-99.99,,,0.00,Acu-Link.com,2013-03-15 07:30:00,
2013-03-15 02:45:00,48.2,34.6,29.99,East,90,2.7,-999.0,59,-99.99,,,0.00,Acu-Link.com,2013-03-15 07:45:00,
2013-03-15 03:00:00,48.4,35.2,29.99,SSE,157,1.7,-999.0,60,-99.99,,,0.00,Acu-Link.com,2013-03-15 08:00:00,
2013-03-15 03:15:00,48.6,35.4,29.99,ESE,112,1.7,-999.0,60,-99.99,,,0.00,Acu-Link.com,2013-03-15 08:15:00,
2013-03-15 03:30:00,47.8,35.0,29.98,SE,135,0.0,-999.0,61,-99.99,,,0.00,Acu-Link.com,2013-03-15 08:30:00,
2013-03-15 03:45:00,47.7,34.9,29.97,SSE,157,0.0,-999.0,61,-99.99,,,0.00,Acu-Link.com,2013-03-15 08:45:00,
2013-03-15 04:00:00,47.8,35.4,29.97,South,180,1.7,-999.0,62,-99.99,,,0.00,Acu-Link.com,2013-03-15 09:00:00,
2013-03-15 04:15:00,46.9,35.0,29.96,ESE,112,0.0,-999.0,63,-99.99,,,0.00,Acu-Link.com,2013-03-15 09:15:00,
2013-03-15 04:31:00,46.9,35.4,29.97,SSE,157,0.0,-999.0,64,-99.99,,,0.00,Acu-Link.com,2013-03-15 09:31:00,
2013-03-15 05:31:00,45.3,35.0,29.97,NNE,22,0.0,-999.0,67,-99.99,,,0.00,Acu-Link.com,2013-03-15 10:31:00,
2013-03-15 05:46:00,45.3,35.7,29.97,NNE,22,0.0,-999.0,69,-99.99,,,0.00,Acu-Link.com,2013-03-15 10:46:00,
2013-03-15 06:01:00,46.6,36.2,29.96,South,180,0.0,-999.0,67,-99.99,,,0.00,Acu-Link.com,2013-03-15 11:01:00,
2013-03-15 06:16:00,45.3,35.7,29.95,SSE,157,0.0,-999.0,69,-99.99,,,0.00,Acu-Link.com,2013-03-15 11:16:00,
2013-03-15 06:31:00,45.3,35.7,29.94,SE,135,0.0,-999.0,69,-99.99,,,0.00,Acu-Link.com,2013-03-15 11:31:00,
2013-03-15 06:47:00,45.0,36.2,29.95,SE,135,0.0,-999.0,71,-99.99,,,0.00,Acu-Link.com,2013-03-15 11:47:00,
2013-03-15 07:02:00,44.6,36.1,29.96,SE,135,0.0,-999.0,72,-99.99,,,0.00,Acu-Link.com,2013-03-15 12:02:00,
2013-03-15 07:17:00,44.8,36.3,29.95,SE,135,0.0,-999.0,72,-99.99,,,0.00,Acu-Link.com,2013-03-15 12:17:00,
2013-03-15 07:32:00,46.2,37.3,29.95,SE,135,1.7,-999.0,71,-99.99,,,0.00,Acu-Link.com,2013-03-15 12:32:00,
2013-03-15 07:47:00,47.7,37.7,29.95,SSE,157,2.2,-999.0,68,-99.99,,,0.00,Acu-Link.com,2013-03-15 12:47:00,
2013-03-15 08:02:00,48.6,38.1,29.94,SSE,157,2.2,-999.0,67,-99.99,,,0.00,Acu-Link.com,2013-03-15 13:02:00,
2013-03-15 08:17:00,50.2,38.9,29.95,SE,135,2.7,-999.0,65,-99.99,,,0.00,Acu-Link.com,2013-03-15 13:17:00,
2013-03-15 08:32:00,51.8,39.2,29.94,SSE,157,3.7,-999.0,62,-99.99,,,0.00,Acu-Link.com,2013-03-15 13:32:00,
2013-03-15 08:47:00,53.4,40.3,29.95,SSE,157,3.7,-999.0,61,-99.99,,,0.00,Acu-Link.com,2013-03-15 13:47:00,
2013-03-15 09:03:00,56.5,41.0,29.95,ENE,67,2.2,-999.0,56,-99.99,,,0.00,Acu-Link.com,2013-03-15 14:03:00,
2013-03-15 09:18:00,59.0,41.9,29.96,SE,135,2.7,-999.0,53,-99.99,,,0.00,Acu-Link.com,2013-03-15 14:18:00,
2013-03-15 09:33:00,61.3,43.0,29.95,ESE,112,2.7,-999.0,51,-99.99,,,0.00,Acu-Link.com,2013-03-15 14:33:00,
2013-03-15 09:48:00,63.5,44.0,29.95,ESE,112,2.7,-999.0,49,-99.99,,,0.00,Acu-Link.com,2013-03-15 14:48:00,
2013-03-15 10:03:00,65.1,44.4,29.97,SW,225,3.2,-999.0,47,-99.99,,,0.00,Acu-Link.com,2013-03-15 15:03:00,
2013-03-15 10:18:00,66.2,44.2,29.95,NNE,22,4.2,-999.0,45,-99.99,,,0.00,Acu-Link.com,2013-03-15 15:18:00,
2013-03-15 10:33:00,68.4,45.6,29.96,NNE,22,3.2,-999.0,44,-99.99,,,0.00,Acu-Link.com,2013-03-15 15:33:00,
2013-03-15 10:48:00,70.7,46.5,29.95,West,270,2.2,-999.0,42,-99.99,,,0.00,Acu-Link.com,2013-03-15 15:48:00,
2013-03-15 11:03:00,70.2,45.4,29.94,SSE,157,4.2,-999.0,41,-99.99,,,0.00,Acu-Link.com,2013-03-15 16:03:00,
2013-03-15 11:19:00,72.1,46.4,29.93,SE,135,4.2,-999.0,40,-99.99,,,0.00,Acu-Link.com,2013-03-15 16:19:00,
2013-03-15 11:34:00,71.1,45.5,29.92,SSE,157,4.7,-999.0,40,-99.99,,,0.00,Acu-Link.com,2013-03-15 16:34:00,
2013-03-15 11:49:00,73.2,46.7,29.92,NW,315,4.7,-999.0,39,-99.99,,,0.00,Acu-Link.com,2013-03-15 16:49:00,
2013-03-15 12:04:00,73.0,46.6,29.91,SSE,157,4.2,-999.0,39,-99.99,,,0.00,Acu-Link.com,2013-03-15 17:04:00,
2013-03-15 12:19:00,73.2,46.7,29.90,SSE,157,6.3,-999.0,39,-99.99,,,0.00,Acu-Link.com,2013-03-15 17:19:00,
2013-03-15 12:34:00,75.2,46.4,29.90,SE,135,3.7,-999.0,36,-99.99,,,0.00,Acu-Link.com,2013-03-15 17:34:00,
2013-03-15 12:49:00,75.7,46.8,29.89,SE,135,3.7,-999.0,36,-99.99,,,0.00,Acu-Link.com,2013-03-15 17:49:00,
2013-03-15 13:04:00,76.1,47.2,29.88,East,90,5.8,-999.0,36,-99.99,,,0.00,Acu-Link.com,2013-03-15 18:04:00,
2013-03-15 13:19:00,77.0,48.0,29.87,ESE,112,3.7,-999.0,36,-99.99,,,0.00,Acu-Link.com,2013-03-15 18:19:00,
2013-03-15 13:35:00,77.4,47.6,29.86,SSE,157,5.8,-999.0,35,-99.99,,,0.00,Acu-Link.com,2013-03-15 18:35:00,
2013-03-15 13:50:00,78.3,48.4,29.86,South,180,3.2,-999.0,35,-99.99,,,0.00,Acu-Link.com,2013-03-15 18:50:00,
2013-03-15 14:05:00,79.0,49.0,29.85,SSE,157,6.8,-999.0,35,-99.99,,,0.00,Acu-Link.com,2013-03-15 19:05:00,
2013-03-15 14:20:00,78.8,48.8,29.83,SSE,157,4.2,-999.0,35,-99.99,,,0.00,Acu-Link.com,2013-03-15 19:20:00,
2013-03-15 14:35:00,76.3,48.8,29.82,SSE,157,4.7,-999.0,38,-99.99,,,0.00,Acu-Link.com,2013-03-15 19:35:00,
2013-03-15 14:50:00,77.2,49.6,29.81,SSE,157,7.3,-999.0,38,-99.99,,,0.00,Acu-Link.com,2013-03-15 19:50:00,
2013-03-15 15:05:00,78.1,49.7,29.81,SSE,157,4.2,-999.0,37,-99.99,,,0.00,Acu-Link.com,2013-03-15 20:05:00,
2013-03-15 15:21:00,78.8,49.6,29.80,ESE,112,7.3,-999.0,36,-99.99,,,0.00,Acu-Link.com,2013-03-15 20:21:00,
2013-03-15 15:51:00,78.6,50.1,29.78,ESE,112,9.9,-999.0,37,-99.99,,,0.00,Acu-Link.com,2013-03-15 20:51:00,
2013-03-15 16:06:00,77.4,50.5,29.78,SE,135,4.7,-999.0,39,-99.99,,,0.00,Acu-Link.com,2013-03-15 21:06:00,
2013-03-15 16:21:00,76.3,49.5,29.78,ESE,112,5.8,-999.0,39,-99.99,,,0.00,Acu-Link.com,2013-03-15 21:21:00,
2013-03-15 16:36:00,77.4,49.8,29.77,SSE,157,5.8,-999.0,38,-99.99,,,0.00,Acu-Link.com,2013-03-15 21:36:00,
2013-03-15 16:52:00,76.6,49.8,29.76,SSE,157,7.8,-999.0,39,-99.99,,,0.00,Acu-Link.com,2013-03-15 21:52:00,
2013-03-15 17:07:00,76.5,49.7,29.77,South,180,5.8,-999.0,39,-99.99,,,0.00,Acu-Link.com,2013-03-15 22:07:00,
2013-03-15 17:22:00,75.6,49.6,29.76,SSE,157,7.8,-999.0,40,-99.99,,,0.00,Acu-Link.com,2013-03-15 22:22:00,
2013-03-15 17:37:00,76.1,49.3,29.75,ESE,112,5.3,-999.0,39,-99.99,,,0.00,Acu-Link.com,2013-03-15 22:37:00,
2013-03-15 17:52:00,75.7,49.6,29.75,South,180,4.7,-999.0,40,-99.99,,,0.00,Acu-Link.com,2013-03-15 22:52:00,
2013-03-15 18:07:00,74.3,49.1,29.75,SSE,157,5.3,-999.0,41,-99.99,,,0.00,Acu-Link.com,2013-03-15 23:07:00,
2013-03-15 18:22:00,73.6,49.1,29.75,NE,45,5.8,-999.0,42,-99.99,,,0.00,Acu-Link.com,2013-03-15 23:22:00,
2013-03-15 18:37:00,72.9,48.4,29.76,SSW,202,7.3,-999.0,42,-99.99,,,0.00,Acu-Link.com,2013-03-15 23:37:00,
2013-03-15 18:52:00,72.0,49.5,29.75,SSE,157,4.2,-999.0,45,-99.99,,,0.00,Acu-Link.com,2013-03-15 23:52:00,
2013-03-15 19:08:00,70.9,49.7,29.74,South,180,3.2,-999.0,47,-99.99,,,0.00,Acu-Link.com,2013-03-16 00:08:00,
2013-03-15 19:23:00,70.2,49.0,29.75,SSE,157,3.7,-999.0,47,-99.99,,,0.00,Acu-Link.com,2013-03-16 00:23:00,
2013-03-15 19:38:00,69.8,49.2,29.76,SE,135,3.2,-999.0,48,-99.99,,,0.00,Acu-Link.com,2013-03-16 00:38:00,
2013-03-15 19:53:00,69.4,48.8,29.75,SSE,157,3.2,-999.0,48,-99.99,,,0.00,Acu-Link.com,2013-03-16 00:53:00,
2013-03-15 20:08:00,68.7,48.2,29.75,SSE,157,3.7,-999.0,48,-99.99,,,0.00,Acu-Link.com,2013-03-16 01:08:00,
2013-03-15 20:23:00,68.5,48.0,29.74,ESE,112,6.3,-999.0,48,-99.99,,,0.00,Acu-Link.com,2013-03-16 01:23:00,
2013-03-15 20:39:00,68.0,47.6,29.74,SSE,157,1.7,-999.0,48,-99.99,,,0.00,Acu-Link.com,2013-03-16 01:39:00,
2013-03-15 20:54:00,68.0,48.1,29.73,SSE,157,4.2,-999.0,49,-99.99,,,0.00,Acu-Link.com,2013-03-16 01:54:00,
2013-03-15 21:09:00,67.6,47.2,29.73,SE,135,4.7,-999.0,48,-99.99,,,0.00,Acu-Link.com,2013-03-16 02:09:00,
2013-03-15 21:24:00,67.3,46.9,29.74,South,180,3.2,-999.0,48,-99.99,,,0.00,Acu-Link.com,2013-03-16 02:24:00,
2013-03-15 21:39:00,67.1,46.7,29.75,SE,135,3.2,-999.0,48,-99.99,,,0.00,Acu-Link.com,2013-03-16 02:39:00,
2013-03-15 21:54:00,66.7,46.4,29.74,ESE,112,2.2,-999.0,48,-99.99,,,0.00,Acu-Link.com,2013-03-16 02:54:00,
2013-03-15 22:09:00,66.4,46.1,29.74,SE,135,4.2,-999.0,48,-99.99,,,0.00,Acu-Link.com,2013-03-16 03:09:00,
2013-03-15 22:24:00,65.7,46.0,29.74,SSW,202,4.2,-999.0,49,-99.99,,,0.00,Acu-Link.com,2013-03-16 03:24:00,
2013-03-15 22:39:00,65.5,45.8,29.74,SE,135,3.7,-999.0,49,-99.99,,,0.00,Acu-Link.com,2013-03-16 03:39:00,
2013-03-15 22:55:00,64.9,45.8,29.73,SSE,157,3.2,-999.0,50,-99.99,,,0.00,Acu-Link.com,2013-03-16 03:55:00,
2013-03-15 23:10:00,64.9,46.3,29.74,SE,135,2.7,-999.0,51,-99.99,,,0.00,Acu-Link.com,2013-03-16 04:10:00,
2013-03-15 23:25:00,64.4,45.9,29.74,SSE,157,3.2,-999.0,51,-99.99,,,0.00,Acu-Link.com,2013-03-16 04:25:00,
2013-03-15 23:40:00,64.2,45.7,29.73,SSE,157,4.7,-999.0,51,-99.99,,,0.00,Acu-Link.com,2013-03-16 04:40:00,
2013-03-15 23:55:00,64.6,46.1,29.73,SSE,157,3.2,-999.0,51,-99.99,,,0.00,Acu-Link.com,2013-03-16 04:55:00,